EW1931 Weather Reports


time (UTC)temp
F
wind
direction
speed
knots
gust
knots
rain 1hr
in
rain 24hr
in
rain mn
in
humidity
%
barometer
mb
20260508173007 68 246 7.8 16.5 0.00 0.00 0.00 40 922.8
20260508171504 67 232 7.0 15.6 0.00 0.00 0.00 43 923.1
20260508170044 66 240 7.8 14.8 0.00 0.00 0.00 44 923.3
20260508164555 65 228 8.7 13.9 0.00 0.00 0.00 47 923.3
20260508163021 64 215 9.6 13.9 0.00 0.00 0.00 48 923.5
20260508161517 63 219 8.7 13.9 0.00 0.00 0.00 51 923.5
20260508160056 61 207 9.6 13.9 0.00 0.00 0.00 53 923.7
20260508154554 60 207 8.7 12.2 0.00 0.00 0.00 55 923.8
20260508153033 58 202 7.8 13.0 0.00 0.00 0.00 59 924.0
20260508151530 57 218 8.7 12.2 0.00 0.00 0.00 63 924.1
20260508150011 55 225 7.8 11.3 0.00 0.00 0.00 66 924.2
20260508144503 54 236 9.6 12.2 0.00 0.00 0.00 68 924.5
20260508143045 52 237 7.8 10.4 0.00 0.00 0.00 69 924.6
20260508141640 51 240 9.6 12.2 0.00 0.00 0.00 72 924.7
20260508140019 49 240 9.6 12.2 0.00 0.00 0.00 74 924.8
20260508134521 47 244 9.6 11.3 0.00 0.00 0.00 74 924.8
20260508133115 45 231 5.2 8.7 0.00 0.00 0.00 75 924.8
20260508131549 44 234 6.1 7.8 0.00 0.00 0.00 74 924.8
20260508130030 43 228 1.7 5.2 0.00 0.00 0.00 76 924.7
20260508124530 41 230 6.1 7.8 0.00 0.00 0.00 78 924.9
20260508123009 40 229 1.7 3.5 0.00 0.00 0.00 73 924.8
20260508121508 40 210 2.6 7.8 0.00 0.00 0.00 73 924.8
20260508120052 40 316 7.8 10.4 0.00 0.00 0.00 71 924.6
20260508114548 40 327 4.3 7.8 0.00 0.00 0.00 69 924.5
20260508113031 41 322 7.0 11.3 0.00 0.00 0.00 68 924.5
20260508111530 41 317 7.8 11.3 0.00 0.00 0.00 69 924.5
20260508110025 40 303 7.0 8.7 0.00 0.00 0.00 69 924.6
20260508104509 40 308 7.0 9.6 0.00 0.00 0.00 66 924.6
20260508103057 41 296 6.1 8.7 0.00 0.00 0.00 65 924.5
20260508101548 43 286 5.2 7.8 0.00 0.00 0.00 62 924.5
20260508100029 43 323 4.3 7.8 0.00 0.00 0.00 63 924.7
20260508094524 42 215 4.3 10.4 0.00 0.00 0.00 70 924.7
20260508093003 44 308 7.0 8.7 0.00 0.00 0.00 66 924.6
20260508091501 44 290 6.1 9.6 0.00 0.00 0.00 67 924.6
20260508090059 46 308 4.3 7.0 0.00 0.00 0.00 64 924.5
20260508084542 47 313 6.1 8.7 0.00 0.00 0.00 63 924.6
20260508083027 49 290 5.2 8.7 0.00 0.00 0.00 60 924.6
20260508081527 51 297 8.7 14.8 0.00 0.00 0.00 58 924.7
20260508080011 49 301 8.7 13.9 0.00 0.00 0.00 64 924.7
20260508074515 50 283 4.3 7.8 0.00 0.00 0.00 63 924.6
20260508073101 50 232 8.7 12.2 0.00 0.00 0.00 65 924.7
20260508071555 49 283 5.2 7.8 0.00 0.00 0.00 67 924.6
20260508070030 48 244 5.2 6.1 0.00 0.00 0.00 66 924.5
20260508064532 49 273 6.1 8.7 0.00 0.00 0.00 66 924.5
20260508063011 49 274 4.3 7.0 0.00 0.00 0.00 66 924.5
20260508061513 49 251 4.3 6.1 0.00 0.00 0.00 65 924.4
20260508060109 50 265 5.2 7.0 0.00 0.00 0.00 64 924.4
20260508054552 51 260 6.1 8.7 0.00 0.00 0.00 62 924.3
20260508053114 51 265 6.1 7.8 0.00 0.00 0.00 62 924.5
20260508051531 51 261 6.1 8.7 0.00 0.00 0.00 61 924.3
20260508050031 53 260 7.0 7.8 0.00 0.00 0.00 60 924.3
20260508044512 55 275 6.1 7.0 0.00 0.00 0.00 56 924.5
20260508043012 56 272 6.1 8.7 0.00 0.00 0.00 53 924.5
20260508041614 58 270 7.0 10.4 0.00 0.00 0.00 50 924.5
20260508040109 59 286 10.4 13.9 0.00 0.00 0.00 49 924.5
20260508034535 58 282 11.3 15.6 0.00 0.00 0.00 50 924.4
20260508033033 56 282 11.3 13.9 0.00 0.00 0.00 52 924.3
20260508031515 53 295 5.2 7.0 0.00 0.00 0.00 54 924.1
20260508030023 55 291 5.2 7.0 0.00 0.00 0.00 52 923.9
20260508024606 56 276 5.2 7.0 0.00 0.00 0.00 52 923.8
20260508023057 58 269 5.2 7.0 0.00 0.00 0.00 50 923.5
20260508021541 61 265 5.2 7.0 0.00 0.00 0.00 47 923.5
20260508020045 63 258 6.1 8.7 0.00 0.00 0.00 44 923.4
20260508014521 64 245 7.0 13.0 0.00 0.00 0.00 43 923.3
20260508013020 65 261 11.3 15.6 0.00 0.00 0.00 42 923.1
20260508011508 66 211 7.8 13.0 0.00 0.00 0.00 41 923.0
20260508010001 66 246 7.8 11.3 0.00 0.00 0.00 36 923.1
20260508004544 65 273 13.0 27.8 0.00 0.00 0.00 36 923.2
20260508003042 67 319 13.0 18.2 0.00 0.00 0.00 30 923.1
20260508001524 68 312 7.8 11.3 0.00 0.00 0.00 31 922.8
20260508000025 68 305 7.0 12.2 0.00 0.00 0.00 31 922.7
20260507234505 68 283 8.7 13.9 0.00 0.00 0.00 31 922.7
20260507233018 68 280 11.3 23.5 0.00 0.00 0.00 30 922.6
20260507231547 68 288 10.4 16.5 0.00 0.00 0.00 31 922.6
20260507230046 69 340 11.3 15.6 0.00 0.00 0.00 30 922.7
20260507224531 69 349 12.2 18.2 0.00 0.00 0.00 30 922.7
20260507223029 68 319 8.7 13.0 0.00 0.00 0.00 31 922.7
20260507221509 67 321 9.6 23.5 0.00 0.00 0.00 32 922.9
20260507220009 69 333 9.6 19.1 0.00 0.00 0.00 30 922.9
20260507214558 69 324 14.8 20.0 0.00 0.00 0.00 29 922.9
20260507213100 68 303 7.0 13.0 0.00 0.00 0.00 31 923.1
20260507211529 67 331 10.4 15.6 0.00 0.00 0.00 37 923.2
20260507210028 65 263 11.3 15.6 0.00 0.00 0.00 44 923.5
20260507204515 62 298 5.2 10.4 0.00 0.00 0.00 51 923.5
20260507203009 62 338 15.6 51.3 0.00 0.00 0.00 47 923.8
20260507201551 66 344 6.1 9.6 0.00 0.00 0.00 35 923.2
20260507200051 65 325 5.2 8.7 0.00 0.00 0.00 36 923.2
20260507194559 66 316 8.7 17.4 0.00 0.00 0.00 32 923.2
20260507193037 68 355 10.4 15.6 0.00 0.00 0.00 32 923.1
20260507191522 66 315 8.7 13.0 0.00 0.00 0.00 33 923.2
20260507190014 66 320 7.8 15.6 0.00 0.00 0.00 32 923.2
20260507184556 67 304 7.0 16.5 0.00 0.00 0.00 31 923.2
20260507183055 68 338 13.0 20.0 0.00 0.00 0.00 32 923.3
20260507181534 67 323 13.0 19.1 0.00 0.00 0.00 35 923.5
20260507180036 65 330 13.0 19.1 0.00 0.00 0.00 37 923.7
20260507174517 67 340 12.2 18.2 0.00 0.00 0.00 37 923.6